Location: Albany
(35.0000°S, 118.0000°E)
Time: 13:21:48
(UTC-05:00)

CZ-4B R/B - Visible Passes

Search period start: 29 January 2015 00:00
Search period end: 08 February 2015 00:00
Orbit: 493 x 668 km, 97.6° (Epoch: 28 January)

Date Brightness Start Highest point End Pass type
(mag) Time Alt. Az. Time Alt. Az. Time Alt. Az.
29 Jan 4.7 13:51:28 20° ENE 13:52:45 25° ESE 13:55:52 10° SSE visible
29 Jan 4.4 15:27:50 15° W 15:28:13 15° W 15:30:21 10° WSW visible
30 Jan 4.5 13:56:52 25° ENE 13:57:57 29° ESE 14:01:12 10° SSE visible
30 Jan 4.5 15:33:14 13° W 15:33:29 13° W 15:35:08 10° WSW visible
31 Jan 4.2 14:02:15 30° ENE 14:03:08 34° ESE 14:06:31 10° S visible
31 Jan 4.7 15:38:37 11° W 15:38:45 11° W 15:39:39 10° WSW visible
01 Feb 3.8 14:07:38 36° ENE 14:08:18 40° ESE 14:11:49 10° S visible
02 Feb 3.5 14:13:01 45° ENE 14:13:29 48° ESE 14:17:04 10° S visible
03 Feb 3.1 14:18:23 56° E 14:18:39 58° ESE 14:22:19 10° S visible
04 Feb 2.8 14:23:44 69° E 14:23:50 69° ESE 14:27:32 10° S visible
05 Feb 2.6 14:29:05 82° SE 14:29:05 82° SE 14:32:44 10° S visible
06 Feb 2.6 14:34:26 75° SW 14:34:26 75° SW 14:37:55 10° SSW visible
07 Feb 2.7 14:39:46 61° SW 14:39:46 61° SW 14:43:05 10° SSW visible
